Tracking 25734 objects as of 28-May-2022
HD Live streaming from Space Station
objects crossing your sky now

OBJECT B

Track OBJECT B now!
10-day predictions


NORAD ID: 46233
Int'l Code: 2020-058B
Perigee: 480.4 km
Apogee: 502.2 km
Inclination: 97.4 °
Period: 94.3 minutes
Semi major axis: 6862 km
RCS: Unknown
Launch date: August 23, 2020
Source: (TBD)
Launch site: Jiuquan Satellite Launch Center, China (JSC)
aabbcc
Your satellite tracking list
Your tracking list is empty




NASA's NSSDC Master Catalog

Two Line Element Set (TLE):
1 46233U 20058B   22148.61275427  .00010120  00000-0  38070-3 0  9999
2 46233  97.4089 204.4089 0015869 162.3686 352.1525 15.27212974 98049
Source of the keplerian elements: AFSPC